Regional Weather Roundup
Issued by NWS

Home | Current Version | Previous Version | Graphics & Text | Print | Product List | Glossary Off
Versions: 1 2 3 4 5 6 7 8 9 10 11 12 13 14 15 16 17 18 19 20 21 22 23 24 25 26 27 28 29 30 31 32 33 34 35 36 37 38 39 40 41 42 43 44 45 46 47 48 49 50

000
ASUS44 KFWD 282215
RWRTX
NORTH TEXAS HOURLY WEATHER ROUNDUP
NATIONAL WEATHER SERVICE FORT WORTH TX
400 PM CST WED JAN 28 2015

NOTE: "FAIR" INDICATES FEW OR NO CLOUDS BELOW 12,000 FEET WITH NO
SIGNIFICANT WEATHER AND/OR OBSTRUCTIONS TO VISIBILITY.

TXZ118-119-282300-
DALLAS/FORT WORTH METROPLEX

CITY           SKY/WX    TMP DP  RH WIND       PRES   REMARKS
DFW AIRPORT    CLOUDY    77  43  29 S15       29.98F
DALLAS LOVE    CLOUDY    79  40  24 S12G23    29.99S
FTW MEACHAM    CLOUDY    81  42  25 S15       29.97F
DAL-EXECUTIVE  CLOUDY    80  41  24 S10G21    29.99F
FTW-ALLIANCE   CLOUDY    79  41  25 S12       29.97F
FTW-SPINKS     SUNNY     81  36  19 S12G23    30.00F
ARLINGTON      CLOUDY    80  40  23 S10       29.99F
GRAND PRAIRIE  SUNNY     77  46  33 S14       30.00F
ADDISON        PTSUNNY   79  36  21 S12G22    30.00
MESQUITE       SUNNY     77  37  24 S20       30.01F
LANCASTER      CLOUDY    76  38  24 S14G23    30.02S
$$

TXZ091>094-102>105-117-120-121-131>134-282300-
NORTH CENTRAL TEXAS

CITY           SKY/WX    TMP DP  RH WIND       PRES   REMARKS
SHRMAN/DENISON CLOUDY    78  46  32 S18G26    29.98S
GAINESVILLE    CLOUDY    77  40  27 S17       29.98S
BOWIE          CLOUDY    78  41  26 S16G22    29.95F
BRIDGEPORT     CLOUDY    81  46  29 SW8       29.99S
DECATUR        CLOUDY    80  36  21 SW14G21   29.98S
DENTON         CLOUDY    78  41  26 S15       29.96F
MCKINNEY       CLOUDY    77  40  26 S18       29.98S
GREENVILLE     CLOUDY    77  37  24 S14       30.01S
ROCKWALL       CLOUDY    78  40  26 SW17G29   29.99S
TERRELL        CLOUDY    79  42  26 S14G29    30.01S
WAXAHACHIE     CLOUDY    77  46  32 S14G22    30.01F
CLEBURNE       PTSUNNY   81  37  21 S16       30.01S
GRANBURY       CLOUDY    83  37  19 S12       30.00S
$$

TXZ083>090-098>101-113>116-127>130-139>142-154-155-282300-
WESTERN NORTH TEXAS

CITY           SKY/WX    TMP DP  RH WIND       PRES   REMARKS
WICHITA FALLS  PTSUNNY   80  45  28 SW18      29.91F
WF-KICKAPOO    PTSUNNY   71  34  26 SW16G22   29.93S
VERNON         MOSUNNY   82  33  16 SW20      29.91R
ABILENE        SUNNY     80  43  26 SW15      30.00F
ABILENE-DYESS  SUNNY     81  48  31 S15       29.98F
BRECKENRIDGE   MOSUNNY   82  42  23 SW15G22   29.96F HAZE
GRAHAM         MOSUNNY   82  46  29 S13       29.93F
MINERAL WELLS  CLOUDY    81  42  25 W12       29.98S
STEPHENVILLE   PTSUNNY   81  37  20 SW7       30.04S
COMANCHE       SUNNY     82  40  22 SW16G23   30.02S
BROWNWOOD      MOSUNNY   82  37  20 SW13      30.02R
COLEMAN        SUNNY     81  47  30 W15       30.03R
BRADY          SUNNY     82  36  18 S15       30.04S
$$

TXZ143>147-156>162-174-175-282300-
CENTRAL TEXAS

CITY           SKY/WX    TMP DP  RH WIND       PRES   REMARKS
WACO           MOSUNNY   79  44  28 S17       30.02F
WACO-TSTC      SUNNY     81  41  24 S17       30.03F
WACO-MCGREGOR  MOSUNNY   81  46  30 S21       30.04
HILLSBORO      MOSUNNY   77  44  30 S17G24    30.01F
CORSICANA      PTSUNNY   81  38  21 S16       30.05R
MEXIA          SUNNY     79  42  27 S14       30.04S
HEARNE         SUNNY     79  41  25 S15G21    30.08S
CAMERON        SUNNY     80  40  23 SW13G18   30.06F
TEMPLE         SUNNY     79  41  25 S22       30.03F
KILLEEN        SUNNY     80  35  20 S21G28    30.04F
FORT HOOD      SUNNY     81  36  19 S17G24    30.03F
GATESVILLE     MOSUNNY   81  37  21 S17G23    30.05R
HAMILTON       MOSUNNY   81  37  21 S16G29    30.04S
LAMPASAS       SUNNY     81  38  21 S10G21    30.04S
$$

TXZ095>097-106>112-122>126-135>138-148>153-164>167-282300-
EAST TEXAS

CITY           SKY/WX    TMP DP  RH WIND       PRES   REMARKS
PARIS          PTSUNNY   75  41  29 S14       30.00F
SULPHUR SPRNGS PTSUNNY   77  39  25 S12G17    30.02F
MOUNT PLEASANT MOSUNNY   76  42  30 S13G18    30.03F
GILMER         MOSUNNY   76  43  31 S8        30.04S
MINEOLA        MOSUNNY   79  37  22 S8        30.03F
TYLER          MOSUNNY   77  42  28 S16G23    30.04F
LONGVIEW       SUNNY     77  44  30 S15G22    30.04F
MARSHALL         N/A     77  42  29 S12       30.08F
ATHENS         PTSUNNY   77  45  31 S8        30.03S
PALESTINE      SUNNY     79  42  26 S14       30.06F
JACKSONVILLE   SUNNY     77  39  25 CALM      30.08F
HENDERSON      SUNNY     75  42  29 S9G21     30.07F
NACOGDOCHES    SUNNY     75  46  35 S13G18    30.09F
LUFKIN         SUNNY     78  46  32 S12       30.09F
$$

SUPPLEMENTAL OBSERVATIONS (CENTRAL)

CITY           SKY/WX    TMP DP  RH WIND       PRES   REMARKS
LAKE TEXOMA      N/A     79  41  25 SW16        N/A
CADDO GRASSLND   N/A     75  37  25 S17G23      N/A
PAT MAYSE LAKE   N/A     73  36  25 S18         N/A
ATHENS           N/A     79  43  27 S13G21      N/A
LAKE LIMESTONE   N/A     79  37  22 S15G22      N/A
MCGREGOR         N/A     81  43  26 S22         N/A
TEMPLE           N/A     79  41  25 S20         N/A
$$

SUPPLEMENTAL OBSERVATIONS (WEST)

CITY           SKY/WX    TMP DP  RH WIND       PRES   REMARKS
LBJ GRASSLAND    N/A     81  37  21 S10         N/A
GRANBURY         N/A     82  34  17 S13         N/A
COMANCHE         N/A     81  36  19 SW15G22     N/A
HAMBY            N/A     81  46  30 SW14G22     N/A
IVIE RESERVOIR   N/A     82  36  18 SW14        N/A
COLORADO BEND    N/A     81  34  18 S12         N/A
$$

SUPPLEMENTAL OBSERVATIONS (EAST)

CITY           SKY/WX    TMP DP  RH WIND       PRES   REMARKS
CADDO LAKE       N/A     77  43  29 SE5G16      N/A
GILMER           N/A     77  43  29 S8G20       N/A
HENDERSON        N/A     75  39  27 S14G22      N/A
LUFKIN           N/A     77  45  31 MISG        N/A
N SABINE NF      N/A     73  45  35 MISG        N/A
S SABINE NF      N/A     73  39  29 SE6         N/A
$$

SUPPLEMENTAL OBSERVATIONS ARE A COLLECTION OF AUTOMATED INSTRUMENTS
THAT ARE MAINTAINED BY A VARIETY OF FEDERAL AND STATE AGENCIES.
CERTAIN ELEMENTS...SUCH AS HUMIDITY VALUES AND SUSTAINED WIND
SPEEDS...MAY BE APPROXIMATED.



USA.gov is the U.S. government's official web portal to all federal, state and local government web resources and services.